Regional Weather Roundup
Issued by NWS

Home | Current Version | Previous Version | Text Only | Print | Product List | Glossary On
Versions: 1 2 3 4 5 6 7 8 9 10 11 12 13 14 15 16 17 18 19 20 21 22 23 24 25 26 27 28 29 30 31 32 33 34 35 36 37 38 39 40 41 42 43 44 45 46 47 48 49 50
000
ASUS45 KBOI 231110
RWRID
WEATHER ROUNDUP FOR IDAHO
NATIONAL WEATHER SERVICE BOISE ID
500 AM MDT TUE SEP 23 2014

NOTE: "FAIR" INDICATES FEW OR NO CLOUDS BELOW 12000 FEET
WITH NO SIGNIFICANT WEATHER AND/OR OBSTRUCTIONS TO VISIBILITY

IDZ012-014-231200-
SOUTHWEST IDAHO


CITY           SKY/WX    TMP DP  RH WIND       PRES   REMARKS
BOISE          PTCLDY    65  52  62 SE10      29.98F
CALDWELL       PTCLDY    59  50  72 N3        30.00S
$$

IDZ016-017-231200-
SOUTHCENTRAL IDAHO


CITY           SKY/WX    TMP DP  RH WIND       PRES   REMARKS
BURLEY         CLEAR     49  46  90 CALM      30.10S
JEROME         CLEAR     55  49  80 NE10      30.10R
TWIN FALLS     CLEAR     52  46  80 SE5       30.09S
$$

IDZ019>023-231200-
SOUTHEAST IDAHO


CITY           SKY/WX    TMP DP  RH WIND       PRES   REMARKS
IDAHO FALLS    PTCLDY    50  47  89 N7        30.15S
POCATELLO      CLEAR     48  48 100 CALM      30.15R
REXBURG        CLEAR     50  49  96 N3        30.16S
$$

IDZ006-010-011-018-031-032-231200-
CENTRAL IDAHO MOUNTAINS


CITY           SKY/WX    TMP DP  RH WIND       PRES   REMARKS
MCCALL         MOCLDY    52  46  80 E6        30.10S
HAILEY         CLEAR     50  46  87 NW9       30.18S
STANLEY          N/A     39  38  96 CALM      30.24S
SALMON         PTCLDY    52  48  87 CALM      30.11R
CHALLIS          N/A    N/A N/A N/A MISG      30.16R
$$

IDZ002-004-006-007-026-231200-
NORTHERN IDAHO


CITY           SKY/WX    TMP DP  RH WIND       PRES   REMARKS
LEWISTON       LGT RAIN  64  59  83 SE7       29.97R
LOWELL           N/A     59  54  83 CALM      29.97F
COEUR D`ALENE  CLOUDY    61  55  82 SW6       29.97S
MULLAN PASS    CLOUDY    50  46  86 CALM      30.13F
$$



USA.gov is the U.S. government's official web portal to all federal, state and local government web resources and services.